Hourly Weather Barkowo

Today, 8 March, Monday

Time Temperature Precipitation Wind Pressure Humidity
00:00 -2°C° 0 mm 2 mps 759 mmHg 68%
01:00 -2°C° 0 mm 2 mps 759 mmHg 66%
02:00 -2°C° 0 mm 2 mps 760 mmHg 67%
03:00 -2°C° 0 mm 3 mps 760 mmHg 68%
04:00 -2°C° 0 mm 3 mps 760 mmHg 69%
05:00 -2°C° 0 mm 3 mps 760 mmHg 69%
06:00 -2°C° 0 mm 3 mps 761 mmHg 69%
07:00 -2°C° 0 mm 2 mps 761 mmHg 69%
08:00 -1°C° 0 mm 3 mps 762 mmHg 62%
09:00 0°C° 0 mm 4 mps 762 mmHg 55%
10:00 +1°C° 0 mm 4 mps 763 mmHg 47%
11:00 +1°C° 0 mm 4 mps 763 mmHg 47%
12:00 +1°C° 0 mm 4 mps 763 mmHg 46%
13:00 +1°C° 0 mm 4 mps 763 mmHg 46%
14:00 +1°C° 0 mm 4 mps 763 mmHg 47%
15:00 0°C° 0 mm 4 mps 763 mmHg 48%
16:00 0°C° 0 mm 4 mps 763 mmHg 49%
17:00 0°C° 0 mm 3 mps 763 mmHg 54%
18:00 -2°C° 0 mm 2 mps 763 mmHg 58%
19:00 -3°C° 0 mm 2 mps 763 mmHg 63%
20:00 -1°C° 0 mm 1 mps 763 mmHg 63%
21:00 -1°C° 0 mm 1 mps 763 mmHg 63%
22:00 -1°C° 0 mm 1 mps 763 mmHg 63%
23:00 -1°C° 0 mm 1 mps 763 mmHg 63%

Tomorrow, 9 March, Tuesday

Time Temperature Precipitation Wind Pressure Humidity
00:00 -1°C° 0 mm 1 mps 763 mmHg 63%
01:00 -1°C° 0 mm 1 mps 763 mmHg 64%
02:00 -1°C° 0 mm 1 mps 763 mmHg 64%
03:00 -1°C° 0 mm 1 mps 763 mmHg 65%
04:00 -1°C° 0 mm 1 mps 762 mmHg 66%
05:00 -1°C° 0 mm 1 mps 762 mmHg 66%
06:00 -1°C° 0 mm 1 mps 762 mmHg 66%
07:00 -1°C° 0 mm 1 mps 762 mmHg 66%
08:00 -2°C° 0 mm 2 mps 762 mmHg 59%
09:00 -1°C° 0 mm 2 mps 762 mmHg 52%
10:00 +1°C° 0 mm 2 mps 762 mmHg 46%
11:00 +2°C° 0 mm 2 mps 762 mmHg 42%
12:00 +2°C° 0 mm 2 mps 762 mmHg 37%
13:00 +3°C° 0 mm 2 mps 762 mmHg 33%
14:00 +4°C° 0 mm 1 mps 762 mmHg 33%
15:00 +4°C° 0 mm 1 mps 761 mmHg 34%
16:00 +4°C° 0 mm 1 mps 761 mmHg 34%
17:00 +3°C° 0 mm 1 mps 761 mmHg 40%
18:00 +1°C° 0 mm 1 mps 761 mmHg 45%
19:00 0°C° 0 mm 1 mps 761 mmHg 51%
20:00 0°C° 0 mm 1 mps 762 mmHg 50%
21:00 0°C° 0 mm 1 mps 762 mmHg 50%
22:00 0°C° 0 mm 1 mps 762 mmHg 49%
23:00 0°C° 0 mm 1 mps 762 mmHg 49%

Day after tomorrow, 10 March, Wednesday

Time Temperature Precipitation Wind Pressure Humidity
00:00 0°C° 0 mm 1 mps 762 mmHg 50%
01:00 -1°C° 0 mm 1 mps 761 mmHg 50%
02:00 -1°C° 0 mm 1 mps 761 mmHg 51%
03:00 -1°C° 0 mm 1 mps 761 mmHg 51%
04:00 -1°C° 0 mm 1 mps 761 mmHg 52%
05:00 -1°C° 0 mm 1 mps 762 mmHg 51%
06:00 -2°C° 0 mm 0 mps 762 mmHg 50%
07:00 -2°C° 0 mm 0 mps 762 mmHg 49%
08:00 +1°C° 0 mm 1 mps 762 mmHg 44%
09:00 +2°C° 0 mm 1 mps 762 mmHg 39%
10:00 +4°C° 0 mm 1 mps 762 mmHg 35%
11:00 +4°C° 0 mm 1 mps 762 mmHg 32%
12:00 +5°C° 0 mm 1 mps 762 mmHg 30%
13:00 +6°C° 0 mm 1 mps 762 mmHg 28%
14:00 +6°C° 0 mm 1 mps 762 mmHg 30%
15:00 +5°C° 0 mm 2 mps 762 mmHg 33%
16:00 +5°C° 0 mm 2 mps 761 mmHg 35%
17:00 +3°C° 0 mm 2 mps 761 mmHg 39%
18:00 +2°C° 0 mm 2 mps 761 mmHg 44%
19:00 -1°C° 0 mm 2 mps 761 mmHg 48%
20:00 -1°C° 0 mm 3 mps 761 mmHg 49%
21:00 -2°C° 0 mm 4 mps 761 mmHg 51%
22:00 -2°C° 0 mm 4 mps 761 mmHg 53%
23:00 -2°C° 0 mm 5 mps 761 mmHg 53%

11 March, Thursday

Time Temperature Precipitation Wind Pressure Humidity
00:00 -2°C° 0 mm 5 mps 760 mmHg 53%
01:00 -3°C° 0 mm 6 mps 760 mmHg 54%
02:00 -3°C° 0 mm 6 mps 759 mmHg 56%
03:00 -3°C° 0 mm 6 mps 758 mmHg 58%
04:00 -3°C° 0 mm 6 mps 757 mmHg 60%
05:00 -3°C° 0 mm 7 mps 757 mmHg 61%
06:00 -2°C° 0 mm 7 mps 756 mmHg 62%
07:00 -2°C° 0 mm 8 mps 756 mmHg 64%
08:00 -1°C° 0 mm 8 mps 755 mmHg 66%
09:00 -1°C° 0 mm 9 mps 754 mmHg 67%
10:00 0°C° 0 mm 9 mps 753 mmHg 69%
11:00 0°C° 0.1 mm 10 mps 752 mmHg 73%
12:00 +1°C° 0.1 mm 10 mps 751 mmHg 76%
13:00 +2°C° 0.1 mm 11 mps 750 mmHg 79%
14:00 +1°C° 1.1 mm 10 mps 749 mmHg 83%
15:00 +1°C° 1.1 mm 10 mps 748 mmHg 87%
16:00 +1°C° 1.1 mm 9 mps 748 mmHg 91%
17:00 +1°C° 1 mm 8 mps 747 mmHg 92%
18:00 +2°C° 1 mm 8 mps 747 mmHg 93%
19:00 +3°C° 1 mm 7 mps 746 mmHg 93%
20:00 +3°C° 0.2 mm 6 mps 746 mmHg 93%
21:00 +4°C° 0.2 mm 6 mps 746 mmHg 93%
22:00 +4°C° 0.2 mm 6 mps 746 mmHg 92%
23:00 +4°C° 0.1 mm 6 mps 746 mmHg 91%

12 March, Friday

Time Temperature Precipitation Wind Pressure Humidity
00:00 +4°C° 0.1 mm 6 mps 746 mmHg 91%
01:00 +3°C° 0.1 mm 6 mps 746 mmHg 90%
02:00 +3°C° 0.1 mm 6 mps 747 mmHg 89%
03:00 +3°C° 0.1 mm 6 mps 747 mmHg 89%
04:00 +3°C° 0.1 mm 6 mps 747 mmHg 89%
05:00 +3°C° 0.6 mm 6 mps 747 mmHg 88%
06:00 +3°C° 0.6 mm 7 mps 748 mmHg 87%
07:00 +2°C° 0.6 mm 7 mps 748 mmHg 86%
08:00 +3°C° 0.2 mm 7 mps 749 mmHg 80%
09:00 +2°C° 0.2 mm 8 mps 749 mmHg 75%
10:00 +3°C° 0.2 mm 9 mps 750 mmHg 69%
11:00 +4°C° 0 mm 8 mps 751 mmHg 67%
12:00 +5°C° 0 mm 8 mps 751 mmHg 66%
13:00 +5°C° 0 mm 8 mps 751 mmHg 64%
14:00 +5°C° 0 mm 7 mps 751 mmHg 62%
15:00 +5°C° 0 mm 7 mps 751 mmHg 61%
16:00 +7°C° 0 mm 6 mps 751 mmHg 60%
17:00 +5°C° 0 mm 6 mps 751 mmHg 63%
18:00 +5°C° 0 mm 5 mps 751 mmHg 67%
19:00 +3°C° 0 mm 5 mps 751 mmHg 71%
20:00 +3°C° 0 mm 6 mps 751 mmHg 71%
21:00 +3°C° 0 mm 6 mps 750 mmHg 72%
22:00 +3°C° 0 mm 7 mps 750 mmHg 73%
23:00 +3°C° 0.2 mm 7 mps 749 mmHg 77%

13 March, Saturday

Time Temperature Precipitation Wind Pressure Humidity
00:00 +2°C° 0.2 mm 8 mps 749 mmHg 81%
01:00 +1°C° 0.2 mm 8 mps 749 mmHg 85%
02:00 +2°C° 0 mm 7 mps 749 mmHg 85%
03:00 +2°C° 0 mm 7 mps 749 mmHg 84%
04:00 +1°C° 0 mm 6 mps 749 mmHg 84%
05:00 +1°C° 0 mm 6 mps 749 mmHg 85%
06:00 +1°C° 0 mm 6 mps 750 mmHg 86%
07:00 +1°C° 0 mm 5 mps 750 mmHg 88%
08:00 +2°C° 0 mm 6 mps 750 mmHg 85%
09:00 +2°C° 0 mm 6 mps 751 mmHg 83%
10:00 +3°C° 0 mm 7 mps 751 mmHg 80%
11:00 +4°C° 0.2 mm 7 mps 751 mmHg 75%
12:00 +5°C° 0.2 mm 7 mps 751 mmHg 69%
13:00 +6°C° 0.2 mm 7 mps 751 mmHg 64%
14:00 +6°C° 0.1 mm 7 mps 750 mmHg 65%
15:00 +7°C° 0.1 mm 6 mps 750 mmHg 65%
16:00 +5°C° 0.1 mm 6 mps 749 mmHg 66%
17:00 +5°C° 0.1 mm 6 mps 748 mmHg 72%
18:00 +4°C° 0.1 mm 7 mps 748 mmHg 78%
19:00 +4°C° 0.1 mm 8 mps 747 mmHg 85%
20:00 +4°C° 0.5 mm 8 mps 746 mmHg 85%
21:00 +4°C° 0.5 mm 8 mps 746 mmHg 86%
22:00 +4°C° 0.5 mm 8 mps 745 mmHg 86%
23:00 +4°C° 0.7 mm 7 mps 744 mmHg 86%
Show more